Wetbulb
73.28 73.35 73.54 73.96 74.26 73.79 72.51 73.14 74.74 73.65 73.00 72.27 73.35 73.14 72.24 71.53 69.79 69.41 69.18 68.87 67.76 67.35 65.39 63.10 62.86 62.08 60.11 60.56 59.37 57.91 55.31 54.00 52.59 55.49 55.75 55.05 54.66 56.17 58.02 56.33 57.13 55.85 56.51
73.03 73.08 73.10 73.38 74.46 74.39 73.96 73.21 73.11 73.34 73.28 73.00 73.28 72.63 72.15 71.51 69.86 69.47 68.73 68.52 66.66 66.50 65.33 64.13 62.57 63.04 60.12 59.80 58.60 55.90 55.04 56.09 54.00 51.20 51.71 53.87 54.37 57.53 54.86 54.30 54.59 56.39 55.61
72.48 72.85 73.27 73.04 73.49 75.01 75.21 75.27 74.52 74.48 73.33 74.22 73.17 72.58 71.45 69.63 68.53 68.84 68.35 67.99 67.40 66.57 65.83 63.89 62.10 61.03 59.76 58.07 57.08 55.71 55.79 55.27 51.90 50.01 51.24 53.52 55.67 54.51 53.68 52.65 53.00 55.19 55.70
72.02 72.89 72.80 73.92 74.26 74.71 75.68 76.16 75.76 75.13 75.01 74.19 73.26 72.26 70.26 69.47 69.31 69.02 68.46 67.96 66.86 65.63 64.78 63.39 61.90 60.88 59.08 57.26 55.85 55.47 53.50 51.15 49.81 49.63 50.68 53.32 52.42 53.83 52.48 50.04 50.77 53.72 54.00
71.94 72.59 73.04 73.93 75.11 75.46 75.52 76.19 76.63 75.92 75.64 75.32 72.75 69.63 69.27 69.86 70.00 68.82 69.02 67.45 65.53 64.40 63.47 61.89 61.99 61.77 61.77 58.39 55.75 53.44 51.26 49.09 49.18 50.45 50.45 49.46 50.96 51.48 50.36 50.19 50.19 52.17 54.08
71.31 72.45 73.55 74.58 75.16 75.65 76.17 76.52 76.69 76.84 74.93 73.36 70.99 70.06 70.08 71.31 66.21 65.83 67.78 67.26 65.82 63.51 61.66 61.57 61.25 62.14 61.29 60.69 58.88 58.33 56.50 50.43 49.87 49.85 48.29 48.45 50.05 51.17 48.65 48.65 49.33 50.67 50.35
69.85 70.61 73.44 74.62 75.46 75.67 76.66 76.53 76.29 74.45 71.69 71.40 71.55 71.36 69.79 69.13 63.06 63.24 65.17 65.54 63.31 61.74 61.98 61.61 60.60 58.34 54.57 50.90 52.10 53.50 53.54 56.07 56.45 50.56 46.98 49.10 49.93 51.46 49.28 48.88 50.08 51.14 51.75
68.55 70.97 74.22 75.26 75.56 76.02 76.23 75.44 73.40 72.78 71.94 72.05 70.72 70.31 67.36 63.95 60.56 60.79 62.20 61.99 61.12 61.68 61.11 60.97 55.97 50.12 49.67 47.46 46.68 47.91 48.25 49.17 49.57 50.21 48.99 50.32 51.03 52.48 50.59 50.77 51.42 52.81 53.43
72.32 73.83 74.88 75.50 75.72 75.28 74.20 73.15 72.38 72.93 71.53 70.60 70.06 67.13 63.69 61.40 58.30 59.13 59.84 59.84 60.12 56.16 56.12 53.30 50.04 46.69 51.74 51.74 46.33 45.95 46.58 47.01 51.32 53.85 54.33 54.51 55.11 54.50 54.60 52.84 51.33 50.75 49.53
74.41 75.13 75.57 75.72 75.11 74.25 74.22 72.63 71.17 71.35 69.23 69.57 68.03 64.11 60.83 61.05 57.12 56.41 58.69 60.06 53.23 48.27 46.49 47.69 52.11 46.57 49.60 48.94 42.52 43.14 44.33 44.79 45.60 48.19 48.62 48.10 49.57 49.56 52.63 51.41 52.22 50.05 49.42
75.39 75.29 75.25 75.03 74.48 73.61 71.76 70.92 70.36 69.92 69.70 67.99 65.35 61.62 60.28 58.92 56.03 55.55 55.66 54.78 53.76 50.97 48.97 47.50 44.78 49.46 47.19 46.84 46.60 44.01 45.19 46.77 47.29 45.58 46.10 45.02 46.05 47.38 47.65 51.47 53.38 51.91 50.02
73.82 72.54 71.60 72.09 72.99 72.27 70.85 70.39 69.90 68.44 66.79 64.87 63.98 60.40 57.87 56.94 53.74 52.29 51.20 51.77 53.43 52.46 49.81 49.11 46.62 47.27 46.32 47.43 46.65 48.31 48.06 47.74 44.62 44.31 44.45 43.87 45.11 46.46 47.75 48.66 53.15 52.87 52.48
71.74 70.91 70.78 71.05 70.73 71.14 70.71 68.50 66.56 65.80 65.10 63.60 62.58 59.56 55.30 53.64 51.69 50.16 49.48 51.23 52.27 52.65 49.55 49.34 49.82 47.60 46.71 47.26 48.82 47.91 47.24 45.10 43.57 42.69 43.23 44.05 45.53 46.62 46.33 46.41 49.61 52.40 51.93
70.76 70.58 70.33 69.56 67.10 66.88 66.88 66.17 65.59 64.28 63.71 63.64 61.71 58.27 54.70 53.40 52.05 49.86 48.37 50.58 51.47 50.96 49.00 49.50 50.87 48.90 49.02 48.52 45.79 44.60 43.83 45.42 44.30 42.65 43.39 44.39 45.42 46.05 44.63 45.48 44.84 46.72 47.09
70.53 69.79 68.30 65.01 59.57 55.53 50.02 53.59 59.02 56.26 59.78 63.53 62.40 59.50 55.86 53.75 55.05 49.92 47.41 49.45 49.59 44.58 47.06 45.30 44.28 43.08 42.59 42.71 43.30 43.10 42.81 43.06 42.28 42.31 42.72 43.29 43.59 43.59 43.72 44.34 44.63 44.55 45.53
69.29 68.59 65.57 62.15 59.86 58.11 54.83 50.66 47.02 46.14 45.38 48.79 52.78 58.58 55.92 52.44 48.12 46.09 45.36 44.06 43.32 45.73 44.79 43.11 41.94 42.04 41.64 41.30 41.71 41.12 40.97 42.85 41.94 42.50 42.16 43.16 42.71 42.24 42.68 42.46 43.38 43.86 43.43
68.10 66.97 64.39 62.74 61.34 59.23 57.75 54.68 53.10 48.53 43.99 42.11 44.30 46.55 49.89 48.64 46.13 41.61 40.87 41.12 42.99 44.46 42.86 41.26 40.79 40.94 40.77 40.88 40.98 40.88 40.23 40.52 41.57 42.26 42.68 43.19 44.33 43.53 42.66 41.86 42.70 42.35 43.84
66.63 61.30 65.50 63.45 61.48 60.35 59.14 55.88 55.61 55.85 53.34 45.89 42.49 42.25 40.05 40.79 40.43 40.95 42.32 43.75 44.94 43.37 41.50 40.88 40.47 41.26 41.31 41.26 40.97 41.55 41.12 41.29 41.83 41.18 42.07 42.38 42.54 42.97 42.01 41.18 41.25 41.28 42.32
65.23 65.18 65.50 63.92 61.32 59.56 57.77 54.60 52.53 49.42 46.66 44.35 43.93 43.72 42.24 41.23 41.94 43.52 45.10 46.88 43.25 41.80 41.56 41.74 40.72 40.21 40.57 40.72 41.18 42.59 40.59 40.30 40.74 40.70 41.21 41.35 41.42 42.53 41.73 41.18 41.37 42.58 42.79
60.76 60.41 62.46 63.51 62.53 60.98 58.29 55.95 51.10 46.94 44.41 43.14 42.56 41.94 45.47 48.16 48.84 47.27 44.98 44.48 42.92 41.36 40.37 41.01 40.69 41.01 40.76 40.07 40.69 40.67 40.47 40.37 40.18 40.71 41.33 41.50 41.01 42.21 41.76 42.08 41.27 40.15 40.65
60.26 61.05 60.92 61.95 62.14 61.86 59.68 56.82 51.65 48.70 46.27 44.17 43.60 44.73 44.46 49.54 48.25 46.02 44.22 43.17 42.56 42.14 41.45 41.08 39.65 40.29 39.80 39.00 39.07 39.36 39.44 39.36 39.48 40.29 40.81 41.08 41.11 41.31 41.45 42.07 41.91 41.32 41.01
58.49 58.29 60.32 61.25 61.15 60.77 60.29 55.94 52.52 50.12 47.99 46.17 44.63 45.55 42.84 48.21 47.75 45.59 44.39 44.05 42.90 42.53 41.86 41.18 40.55 39.10 38.24 37.82 37.57 36.73 36.96 37.59 38.23 38.41 38.83 40.22 40.69 40.98 41.46 41.45 41.83 41.45 40.13
57.28 57.98 58.32 58.51 60.56 58.96 59.10 56.47 54.20 52.89 50.79 48.12 46.79 45.72 45.15 46.73 45.79 45.02 44.72 43.84 43.45 42.91 42.21 42.23 40.29 38.30 37.65 36.79 36.64 36.14 35.50 35.82 36.42 36.55 37.05 38.99 40.18 40.57 41.01 41.09 41.28 40.33 39.78
56.46 57.64 57.02 57.13 58.82 60.25 59.56 58.27 56.60 52.26 52.49 50.00 49.52 46.75 46.12 48.04 45.97 45.01 44.26 43.59 43.79 42.46 41.16 39.82 38.70 37.45 36.77 36.01 35.38 34.12 33.71 33.65 35.03 34.84 36.29 38.62 39.97 40.28 41.24 40.86 40.78 40.33 39.27
55.55 57.29 57.52 57.75 58.29 58.58 58.69 58.79 56.93 55.56 53.48 51.22 50.83 50.29 48.11 47.27 46.65 45.70 44.07 43.54 43.06 42.02 40.35 39.01 37.63 37.08 36.12 35.30 34.31 33.86 31.98 30.64 32.58 33.54 36.90 40.49 40.94 41.40 41.59 40.77 39.80 39.58 38.80
56.64 57.02 56.83 57.26 57.88 58.51 59.28 58.44 53.88 52.38 52.17 52.11 52.34 51.22 49.10 48.25 46.95 45.54 44.38 43.72 42.70 41.20 40.20 38.49 37.48 36.84 35.89 35.21 34.80 33.08 31.58 30.61 32.45 31.70 39.14 40.23 40.80 40.44 40.67 39.48 39.92 38.71 38.44
MSLP
1007.39 1007.91 1008.58 1009.11 1009.65 1010.21 1010.44 1010.70 1011.13 1011.44 1011.61 1012.10 1012.62 1012.92 1012.86 1013.11 1013.92 1013.77 1014.70 1014.72 1015.55 1015.63 1015.82 1015.99 1016.40 1016.35 1016.42 1016.59 1016.79 1017.24 1017.53 1017.35 1017.00 1015.89 1015.29 1014.57 1014.09 1013.53 1012.92 1012.20 1011.79 1010.81 1009.73
1006.55 1007.24 1007.60 1008.14 1008.65 1009.17 1009.52 1009.97 1010.57 1010.95 1011.31 1011.71 1012.23 1012.46 1012.30 1012.39 1012.90 1014.03 1014.44 1014.85 1015.39 1015.82 1015.93 1015.81 1016.07 1016.17 1016.31 1016.07 1016.17 1016.63 1017.09 1016.89 1016.80 1016.15 1015.27 1014.54 1013.93 1013.10 1012.55 1011.87 1011.17 1010.11 1009.16
1005.83 1006.43 1007.07 1007.48 1007.85 1008.13 1008.74 1009.54 1010.03 1010.37 1010.72 1011.18 1011.59 1012.04 1012.05 1012.54 1012.95 1013.59 1013.87 1014.52 1014.87 1015.05 1015.45 1015.46 1015.34 1015.57 1016.45 1016.61 1016.47 1016.57 1016.58 1016.51 1016.39 1016.35 1015.39 1014.43 1013.57 1012.89 1012.01 1011.39 1010.67 1009.67 1008.39
1004.72 1005.42 1005.97 1006.35 1006.93 1007.70 1008.42 1008.94 1009.33 1009.72 1010.27 1010.64 1011.03 1011.45 1012.15 1012.33 1012.83 1013.11 1013.94 1014.40 1014.75 1014.89 1014.82 1015.15 1015.21 1015.61 1015.94 1016.19 1016.27 1016.25 1016.27 1016.25 1016.11 1015.97 1015.42 1014.40 1013.62 1012.63 1012.25 1011.38 1009.98 1008.58 1007.32
1003.79 1004.55 1004.68 1005.49 1006.41 1007.39 1008.03 1008.44 1008.86 1009.29 1009.61 1009.98 1010.60 1011.22 1011.97 1012.08 1012.31 1012.80 1013.24 1013.62 1014.25 1014.55 1014.96 1015.21 1015.19 1015.39 1015.63 1015.85 1016.22 1016.15 1016.19 1016.16 1016.05 1015.78 1015.33 1014.46 1013.68 1012.75 1012.22 1011.57 1010.72 1008.72 1006.83
1002.85 1003.25 1004.45 1005.35 1006.09 1006.69 1007.36 1008.07 1008.39 1008.71 1009.25 1009.85 1010.37 1011.22 1011.36 1012.21 1012.72 1013.21 1013.86 1013.78 1013.78 1014.48 1015.19 1015.31 1015.18 1015.55 1015.85 1016.12 1016.33 1016.08 1015.98 1016.07 1015.84 1015.71 1015.27 1014.49 1013.66 1012.93 1012.22 1011.65 1010.72 1009.11 1006.76
1002.21 1003.23 1003.95 1004.73 1005.40 1006.06 1006.88 1007.47 1007.90 1008.59 1009.27 1009.78 1010.00 1010.31 1011.31 1012.11 1012.19 1012.76 1013.70 1014.37 1014.46 1014.49 1014.97 1014.98 1015.60 1015.95 1015.99 1016.49 1016.47 1015.97 1015.93 1015.72 1015.33 1015.19 1014.91 1014.19 1013.53 1012.69 1012.29 1011.58 1010.51 1009.37 1007.82
1002.30 1002.88 1003.50 1004.19 1004.99 1005.80 1006.55 1007.10 1007.80 1008.29 1008.61 1009.24 1009.78 1010.59 1011.21 1011.99 1012.32 1012.71 1013.17 1013.49 1014.52 1015.00 1015.22 1015.25 1015.74 1016.20 1016.28 1016.70 1016.53 1016.22 1016.01 1015.54 1014.99 1014.51 1014.35 1013.64 1013.08 1012.44 1012.21 1011.77 1010.72 1009.22 1007.65
1001.81 1002.51 1003.18 1003.91 1004.78 1005.47 1006.20 1006.47 1006.83 1007.71 1008.28 1008.64 1009.15 1009.75 1011.52 1011.98 1012.36 1012.97 1013.75 1013.96 1014.27 1014.42 1015.45 1015.70 1015.97 1016.33 1016.34 1016.61 1016.68 1016.59 1016.22 1015.50 1014.61 1014.03 1013.53 1013.01 1012.54 1012.07 1011.76 1011.53 1010.47 1008.97 1007.45
1001.67 1002.33 1003.03 1003.72 1004.40 1005.27 1005.76 1006.50 1007.03 1007.73 1008.71 1009.62 1010.58 1010.91 1011.27 1012.06 1012.77 1013.55 1014.40 1015.13 1015.35 1015.81 1016.18 1016.35 1016.25 1016.35 1016.29 1016.59 1016.74 1016.66 1016.55 1015.96 1015.25 1014.53 1013.74 1013.15 1012.67 1012.20 1011.80 1011.74 1011.07 1009.81 1008.28
1002.04 1002.73 1003.41 1004.02 1004.69 1005.46 1006.37 1007.14 1008.01 1008.58 1009.39 1010.20 1010.95 1011.84 1012.09 1012.93 1013.55 1014.00 1014.29 1014.61 1015.39 1015.98 1016.38 1016.54 1016.45 1016.32 1016.34 1016.64 1016.61 1016.63 1016.57 1016.06 1015.43 1015.01 1014.44 1013.83 1013.17 1012.63 1012.06 1011.67 1011.20 1010.61 1009.32
1002.59 1003.44 1004.22 1004.82 1005.40 1006.09 1006.89 1007.84 1008.32 1008.90 1009.75 1010.56 1011.77 1012.77 1013.16 1013.55 1013.87 1014.30 1014.45 1014.82 1015.00 1015.78 1016.24 1016.35 1016.47 1016.37 1016.57 1016.61 1016.73 1016.72 1016.35 1016.07 1015.77 1015.49 1014.97 1014.38 1013.72 1013.08 1012.34 1011.68 1011.15 1010.62 1009.87
1003.26 1004.13 1004.91 1005.56 1006.05 1006.49 1007.16 1008.07 1008.80 1009.47 1010.18 1011.08 1012.11 1013.08 1013.76 1014.06 1014.43 1014.57 1014.84 1014.99 1015.27 1015.76 1016.03 1016.24 1016.35 1016.41 1016.71 1017.03 1017.22 1016.89 1016.58 1016.49 1016.48 1016.13 1015.63 1014.96 1014.27 1013.39 1012.54 1011.84 1011.29 1010.73 1010.08
1003.92 1004.80 1005.59 1006.26 1006.94 1007.45 1008.20 1008.90 1009.57 1010.10 1010.69 1011.38 1012.29 1013.31 1014.05 1014.53 1014.77 1014.95 1015.23 1015.42 1015.63 1015.88 1016.15 1016.36 1016.39 1016.78 1017.04 1017.42 1017.41 1017.17 1017.03 1016.97 1016.87 1016.49 1016.04 1015.23 1014.32 1013.59 1013.18 1012.45 1011.96 1011.23 1010.60
1004.48 1005.47 1006.39 1007.25 1008.10 1008.87 1009.74 1010.42 1010.44 1010.79 1010.94 1011.31 1012.14 1012.94 1013.97 1014.71 1014.67 1014.71 1015.13 1015.56 1015.87 1016.17 1016.44 1016.68 1017.11 1017.55 1017.82 1018.05 1017.97 1017.75 1017.51 1017.34 1017.17 1016.71 1016.37 1015.77 1015.07 1014.32 1013.84 1013.05 1012.53 1012.03 1011.45
1005.09 1006.01 1006.95 1007.92 1008.83 1009.46 1010.24 1011.15 1011.58 1011.70 1011.56 1011.49 1011.74 1012.41 1013.61 1013.86 1014.47 1014.95 1015.53 1015.77 1016.00 1016.16 1016.75 1017.50 1018.07 1018.27 1018.46 1018.56 1018.48 1018.31 1018.07 1017.81 1017.42 1016.98 1016.56 1016.09 1015.73 1015.08 1014.53 1013.81 1013.30 1013.00 1012.67
1005.41 1006.33 1007.26 1008.01 1008.83 1009.62 1010.47 1011.09 1011.92 1012.63 1012.34 1012.43 1012.61 1012.89 1013.34 1014.02 1014.74 1015.17 1015.75 1016.04 1016.35 1016.40 1017.24 1018.04 1018.40 1018.63 1018.81 1018.85 1018.81 1018.65 1018.48 1018.17 1017.72 1017.33 1016.95 1016.54 1016.05 1015.49 1015.11 1014.63 1014.23 1013.79 1013.50
1005.84 1006.59 1007.39 1008.17 1008.84 1009.67 1010.33 1011.05 1011.57 1012.24 1012.79 1013.45 1013.81 1013.77 1013.91 1014.38 1014.88 1015.46 1016.04 1016.27 1016.98 1017.36 1018.01 1018.41 1018.65 1018.77 1018.87 1019.06 1019.04 1018.85 1018.58 1018.30 1018.11 1017.83 1017.37 1016.93 1016.54 1016.23 1015.75 1015.33 1015.06 1014.70 1014.28
1006.05 1006.83 1007.53 1008.26 1008.98 1009.63 1010.43 1011.19 1011.81 1012.61 1013.12 1013.71 1014.21 1014.71 1015.04 1015.26 1015.54 1015.91 1016.08 1016.66 1017.35 1017.94 1018.35 1018.66 1018.80 1018.93 1019.05 1019.03 1018.93 1018.87 1018.91 1018.83 1018.71 1018.35 1017.95 1017.52 1017.02 1016.61 1016.25 1015.83 1015.45 1015.20 1015.00
1006.56 1007.08 1007.72 1008.46 1009.31 1010.06 1010.74 1011.33 1012.11 1012.75 1013.49 1013.92 1014.47 1015.08 1015.41 1015.46 1015.89 1016.34 1016.57 1017.05 1017.64 1018.13 1018.45 1018.64 1018.79 1019.00 1019.24 1019.21 1019.18 1019.18 1019.26 1019.10 1019.07 1018.83 1018.48 1018.03 1017.47 1016.93 1016.78 1016.48 1016.15 1016.01 1015.88
1006.93 1007.36 1007.84 1008.59 1009.37 1010.07 1010.71 1011.53 1012.23 1012.80 1013.64 1014.24 1014.71 1015.05 1015.22 1015.58 1016.16 1016.70 1017.18 1017.45 1017.76 1018.18 1018.47 1018.60 1018.88 1019.26 1019.44 1019.53 1019.53 1019.58 1019.67 1019.67 1019.57 1019.34 1018.99 1018.48 1017.86 1017.54 1017.15 1016.82 1016.62 1016.43 1016.28
1007.23 1007.47 1007.87 1008.48 1009.25 1009.98 1010.55 1011.45 1012.21 1012.75 1013.48 1014.21 1014.75 1015.16 1015.69 1016.06 1016.45 1016.91 1017.22 1017.51 1017.81 1018.01 1018.29 1018.74 1019.19 1019.55 1019.67 1019.73 1019.82 1019.96 1020.09 1020.14 1019.99 1019.70 1019.35 1018.80 1018.19 1017.76 1017.45 1017.29 1017.18 1017.05 1017.00
1007.49 1007.84 1008.00 1008.35 1008.97 1009.72 1010.53 1011.25 1011.97 1012.55 1013.27 1013.90 1014.54 1015.18 1015.79 1016.16 1016.58 1017.02 1017.24 1017.58 1017.87 1018.17 1018.63 1018.83 1019.48 1019.84 1019.94 1019.99 1020.08 1020.21 1020.35 1020.39 1020.29 1020.03 1019.66 1019.15 1018.62 1018.25 1017.95 1017.96 1017.82 1017.75 1017.76
1007.36 1007.69 1008.03 1008.46 1008.91 1009.46 1010.15 1010.94 1011.61 1012.16 1012.80 1013.49 1014.07 1014.68 1015.35 1015.79 1016.48 1016.99 1017.31 1017.77 1018.20 1018.53 1018.99 1019.29 1019.66 1020.00 1020.17 1020.29 1020.44 1020.53 1020.51 1020.35 1020.15 1019.99 1019.69 1019.38 1018.91 1018.52 1018.36 1018.34 1018.31 1018.33 1018.45
1007.03 1007.23 1007.81 1008.37 1008.85 1009.38 1010.05 1010.70 1011.24 1011.89 1012.61 1013.17 1013.62 1014.24 1014.91 1015.50 1016.27 1016.89 1017.33 1017.80 1018.38 1018.84 1019.19 1019.69 1019.99 1020.23 1020.42 1020.56 1020.65 1020.61 1020.51 1020.33 1020.05 1019.84 1019.55 1019.17 1019.05 1018.77 1018.76 1018.82 1018.81 1018.96 1019.08
1007.09 1007.32 1007.69 1008.21 1008.55 1009.15 1009.86 1010.43 1011.09 1011.64 1012.18 1012.87 1013.31 1014.01 1014.61 1015.27 1015.97 1016.65 1017.16 1017.68 1018.31 1018.84 1019.23 1019.73 1020.11 1020.35 1020.54 1020.64 1020.65 1020.57 1020.35 1020.21 1020.00 1019.71 1019.38 1019.27 1019.15 1019.09 1019.08 1019.24 1019.31 1019.61 1019.82
Wind_Speed
19 18 17 15 15 13 13 13 12 6 6 5 6 7 9 8 4 5 7 8 6 3 4 5 2 4 2 1 1 1 3 2 4 4 3 7 5 6 8 7 12 15 15
17 16 17 15 15 15 14 13 8 10 6 6 7 7 8 9 7 6 6 6 2 5 5 4 5 3 3 3 3 3 3 3 2 10 5 5 5 9 6 12 11 14 15
16 16 15 15 15 16 14 10 8 7 7 6 8 9 10 2 7 7 8 7 6 5 6 6 7 5 2 1 1 2 2 3 3 3 7 3 4 4 7 9 13 16 12
16 17 17 17 16 13 11 10 10 9 8 7 8 9 6 7 8 7 6 5 5 5 5 4 5 4 4 4 3 3 2 4 3 4 5 5 3 6 6 10 14 13 14
16 17 19 15 12 10 10 10 10 10 10 7 8 7 5 8 7 7 7 6 7 5 3 4 4 6 7 5 2 1 2 2 3 4 4 4 7 8 10 7 12 16 14
16 19 12 11 11 11 11 11 11 10 5 8 7 9 11 5 7 7 4 6 7 6 4 2 4 4 5 6 4 5 3 2 3 2 3 7 9 8 3 7 12 13 12
14 10 11 12 13 13 12 11 10 7 6 8 11 10 7 5 6 5 9 3 3 5 4 4 3 4 6 3 6 7 7 10 6 3 4 7 7 6 4 9 15 14 13
8 10 12 14 13 13 12 9 6 8 10 10 8 8 8 5 12 12 12 8 5 4 3 3 6 4 3 2 4 6 6 7 7 5 6 8 6 9 5 7 15 14 11
11 11 12 13 13 12 10 10 6 7 7 7 9 11 8 8 10 10 8 5 5 8 6 6 6 4 1 2 5 6 7 7 10 14 13 14 13 13 11 6 10 12 12
10 11 11 12 13 11 11 9 4 5 7 6 6 6 11 8 8 9 6 5 7 5 5 3 5 5 5 3 4 4 6 6 7 9 10 12 11 9 10 4 8 11 10
10 10 10 9 9 9 9 8 9 9 8 6 7 4 7 8 7 10 10 5 6 5 4 2 1 2 6 5 4 3 3 6 8 6 6 6 7 8 5 4 5 8 10
11 11 10 10 9 9 12 9 8 8 8 7 8 7 5 6 7 6 10 8 7 6 4 2 2 4 9 8 6 6 8 7 5 5 5 5 5 7 9 5 5 5 8
12 12 11 10 10 10 11 8 6 7 7 6 6 6 4 4 4 6 8 9 9 4 3 3 4 9 10 8 7 9 8 5 4 5 4 4 5 6 8 7 5 6 6
13 11 9 9 8 9 6 4 6 5 5 6 6 6 4 4 4 3 4 4 6 5 4 5 8 10 9 5 4 6 5 4 3 3 4 5 5 6 5 6 4 5 4
12 10 9 8 9 8 8 5 4 3 2 6 5 7 7 4 4 6 6 4 4 3 6 4 5 4 5 4 4 5 5 5 5 5 4 5 5 5 5 5 4 4 7
12 10 8 8 7 7 7 7 17 10 8 7 11 10 2 7 11 11 7 9 9 8 5 4 3 3 4 2 3 4 4 6 5 5 4 4 4 5 5 5 4 4 5
11 11 8 8 7 7 6 6 7 5 16 17 11 9 9 11 11 13 11 10 8 8 5 4 4 3 2 2 2 2 3 4 4 4 4 5 5 4 5 5 5 4 5
9 12 8 6 7 6 5 5 4 5 4 3 11 8 11 14 12 13 11 8 6 6 4 4 3 3 2 2 2 1 3 4 5 5 5 5 5 3 4 5 4 5 5
8 6 7 6 6 6 6 5 5 5 5 5 6 7 8 11 11 9 7 5 5 4 3 4 3 3 3 2 2 3 3 3 4 4 5 5 5 3 4 5 5 7 5
6 11 8 7 7 6 6 6 6 5 5 5 5 4 3 4 3 3 4 5 5 4 4 4 3 4 4 4 4 4 4 5 5 5 5 5 5 4 4 5 5 4 5
5 6 10 6 6 6 6 6 6 5 5 4 4 4 5 4 5 6 5 5 5 5 5 5 4 4 4 3 4 4 4 4 4 4 5 5 5 4 4 4 4 5 5
4 4 5 5 5 6 6 6 7 6 7 7 4 3 8 4 5 6 5 5 4 5 4 5 5 4 4 4 3 4 4 4 4 4 5 5 5 5 4 4 5 5 5
4 4 4 4 6 8 8 7 8 7 7 6 6 5 4 4 5 5 6 5 5 5 5 6 5 4 4 4 4 4 4 3 3 3 4 5 5 4 4 4 4 5 5
4 6 5 5 6 7 8 8 8 9 9 8 8 6 5 5 6 6 6 5 6 6 5 5 5 6 5 4 4 3 3 1 2 3 4 3 4 5 4 4 5 6 6
4 6 6 6 7 7 8 8 8 8 8 7 8 8 6 7 8 6 6 6 6 6 6 5 5 6 7 7 4 3 3 4 4 5 2 1 5 6 5 3 4 5 5
5 5 5 5 6 7 8 8 8 8 9 8 8 8 9 9 9 9 8 8 6 5 7 5 6 8 7 5 5 5 4 4 4 4 3 4 5 5 4 5 8 5 6
Wind_Direction
199 200 202 205 207 207 213 217 220 219 231 191 176 174 191 181 134 136 180 177 223 292 204 172 209 199 199 200 241 258 278 210 253 291 258 287 283 286 289 287 306 304 306
203 202 203 202 201 206 212 214 210 221 215 188 169 184 202 196 155 166 181 180 231 265 212 141 232 194 227 211 163 255 262 276 240 301 294 298 284 296 283 311 310 313 302
198 199 202 206 204 206 207 200 188 193 199 185 178 185 204 137 134 179 181 179 207 221 178 195 202 183 268 278 243 245 246 285 295 275 295 281 280 289 311 312 319 312 296
194 196 202 201 203 202 195 190 192 190 189 188 189 187 146 155 188 179 175 184 201 175 191 193 176 166 200 220 214 208 292 311 308 285 285 289 281 307 312 319 317 319 311
191 199 206 200 192 185 189 182 185 191 205 187 155 133 142 180 182 180 187 163 163 180 198 185 158 177 185 196 162 278 317 300 288 295 297 296 311 325 320 315 310 313 317
191 203 193 181 173 176 173 178 193 200 171 142 148 162 185 169 168 190 158 168 183 144 177 179 147 134 110 69 1 353 358 272 287 286 283 302 308 307 287 309 311 319 323
195 180 173 167 171 171 169 182 191 156 146 156 170 174 132 133 136 138 152 95 132 162 174 145 90 74 66 12 338 10 355 339 337 300 276 305 301 301 297 310 311 312 310
164 165 165 169 168 164 172 169 141 151 166 166 154 133 126 121 128 128 129 139 156 117 89 90 105 106 61 340 10 18 347 324 321 325 284 285 277 293 262 282 296 305 308
160 162 165 162 156 157 152 159 177 154 162 146 147 136 133 135 142 129 132 141 86 92 85 93 115 112 190 61 48 16 351 328 339 336 338 333 320 329 323 319 331 330 332
148 149 149 152 149 147 160 157 122 101 83 83 76 118 145 135 107 98 87 78 100 95 73 88 126 155 155 77 68 37 358 317 338 335 341 334 334 326 334 313 334 340 338
116 118 120 124 125 116 97 95 102 102 114 115 109 103 90 95 103 129 138 123 131 138 143 157 164 148 70 69 89 55 301 301 337 343 337 326 338 333 334 316 341 346 341
105 100 95 95 103 103 107 114 124 132 124 110 102 82 76 107 122 128 115 127 135 132 164 161 215 77 64 72 65 30 19 15 3 351 349 331 336 338 328 314 326 342 352
109 112 105 103 114 129 133 137 113 109 123 113 117 118 112 102 92 97 113 109 117 114 129 201 117 66 89 76 44 34 29 22 3 4 336 321 312 306 317 331 315 287 349
114 108 108 113 87 70 72 86 111 115 113 122 124 122 133 131 136 126 125 105 83 80 68 51 94 79 67 96 38 24 24 15 17 350 324 301 313 343 343 340 328 330 346
109 109 101 88 89 84 61 33 83 53 79 135 137 145 148 165 204 166 154 147 124 125 100 63 56 51 53 41 28 21 7 8 11 350 341 343 337 340 344 330 340 335 23
124 120 111 109 109 104 101 77 45 46 48 53 149 149 86 129 146 150 138 123 140 135 66 85 71 69 75 59 41 14 7 359 349 347 337 343 341 340 339 339 350 354 3
122 125 119 122 122 121 115 118 114 60 66 50 53 96 123 147 138 128 127 103 103 94 94 94 101 98 95 74 51 26 354 338 328 359 356 343 344 339 353 356 356 351 1
118 116 122 127 128 128 128 119 117 115 108 55 38 73 84 109 116 124 127 94 71 42 86 117 118 114 94 57 8 352 14 9 10 354 1 348 359 351 352 356 6 3 10
119 122 124 122 120 119 112 110 102 108 103 113 111 68 72 87 97 98 104 113 122 114 115 114 112 97 69 43 44 79 54 30 17 357 358 352 351 17 7 9 4 22 33
106 122 116 126 126 124 130 131 124 117 118 120 110 121 136 99 92 71 84 114 109 118 128 123 114 91 79 66 75 75 51 35 20 6 354 349 346 19 21 14 15 21 17
127 133 134 121 134 144 143 132 129 126 122 123 136 158 153 130 132 126 124 122 131 134 128 117 104 98 89 75 75 72 63 45 25 2 358 346 355 10 4 24 25 30 37
137 146 150 143 133 142 147 131 140 140 139 148 153 167 140 111 127 133 133 129 126 122 123 115 101 93 82 80 80 76 71 46 14 359 352 344 0 9 20 25 26 30 42
158 170 154 141 150 139 141 147 148 148 150 152 160 154 158 133 134 139 133 126 121 110 106 106 110 97 79 73 67 77 93 58 349 339 344 349 4 11 18 41 33 42 55
142 182 180 144 146 154 153 155 157 154 156 160 166 161 147 147 143 147 129 117 112 109 104 108 108 115 100 82 77 72 72 19 325 325 327 346 8 9 50 48 54 62 67
188 170 149 152 151 146 143 149 153 157 161 159 160 161 147 143 138 138 131 127 123 123 118 114 108 106 96 96 95 83 25 5 333 312 301 48 39 48 62 60 74 68 71
102 106 134 138 141 144 153 158 155 151 152 162 157 151 148 146 145 146 143 134 132 129 127 123 126 120 116 104 83 58 21 357 355 346 59 52 51 56 67 79 78 81 84